Location: Ar Ranvel
(48.3000°N, 4.8833°W)
Time: 01:17:16
(UTC+00:00)

Cosmos 1900 - Visible Passes

Search period start: 23 October 2021 00:00
Search period end: 02 November 2021 00:00
Orbit: 691 x 730 km, 66.1° (Epoch: 22 October)

Date Brightness Start Highest point End Pass type
(mag) Time Alt. Az. Time Alt. Az. Time Alt. Az.
23 Oct 4.8 05:30:33 10° SSW 05:35:22 63° ESE 05:40:13 10° NE visible
24 Oct 6.1 04:36:28 10° S 04:40:42 30° ESE 04:44:58 10° NE visible
24 Oct 4.6 06:17:36 10° WSW 06:22:18 46° NW 06:27:02 10° NNE visible
25 Oct 7.0 03:43:39 10° SE 03:46:16 15° ESE 03:48:53 10° ENE visible
25 Oct 4.2 05:22:25 10° SW 05:27:19 88° WNW 05:32:14 10° NE visible
26 Oct 5.2 04:30:01 24° S 04:32:33 45° ESE 04:37:12 10° NE visible
26 Oct 5.0 06:10:01 10° WSW 06:14:27 34° NW 06:18:55 10° NNE visible
27 Oct 6.3 03:37:35 22° ESE 03:37:59 22° ESE 03:41:42 10° ENE visible
27 Oct 4.3 05:16:41 26° WSW 05:19:20 62° NW 05:24:12 10° NNE visible
28 Oct 4.4 04:24:03 65° SSE 04:24:26 68° ESE 04:29:18 10° NE visible
28 Oct 5.4 06:03:09 13° W 06:06:38 26° NW 06:10:44 10° NNE visible
29 Oct 6.2 03:31:17 27° E 03:31:17 27° E 03:34:06 10° NE visible
29 Oct 4.7 05:10:22 38° W 05:11:25 43° NW 05:16:06 10° NNE visible
30 Oct 4.8 04:17:28 55° NNE 04:17:28 55° NNE 04:21:19 10° NE visible
30 Oct 5.8 05:56:33 15° WNW 05:58:54 20° NNW 06:02:33 10° NNE visible
31 Oct 6.5 03:24:29 22° NE 03:24:29 22° NE 03:26:19 10° NE visible
31 Oct 5.1 05:03:33 32° NW 05:03:33 32° NW 05:07:58 10° NNE visible
01 Nov 5.6 04:10:30 32° NNE 04:10:30 32° NNE 04:13:16 10° NNE visible
01 Nov 6.0 05:49:34 14° NW 05:51:14 16° NNW 05:54:20 10° NNE visible
